Flag for US Virgin Islands Weather past 2 weeks in Christiansted, US Virgin Islands

Now
84 °F

Cloudy.


Feels Like: 90 °F
Forecast: 78 / 82 °F
Wind: 18 mph from East

Location: Christiansted / Henry E. Rohlsen Airport - Saint Croix

Current Time: May 23, 2015 at 9:07:16 AM

Latest Report: May 23, 2015 at 7:53 AM


Visibility: 10 mi

Pressure: 30.12 "Hg

Humidity: 70%

Dew point: 73 °F

Location of ChristianstedLocation

Historic Weather in Christiansted — Graph

°F

Christiansted temperature yesterday

Maximum temperature yesterday: 89 °F (at 12:53 PM)
Minimum temperature yesterday: 80 °F (at 12:53 AM)
Average temperature yesterday: 83 °F

Past Weeks' High & Low Weather Summary

 TemperatureHumidityPressure
High89 °F (May 8, 11:53 AM)97% (May 20, 4:53 AM)30.13 "Hg (May 20, 4:53 AM)
Low73 °F (May 18, 5:53 AM)53% (May 8, 11:53 AM)29.95 "Hg (May 20, 4:53 PM)
Average81 °F73%30.05 "Hg
* Reported May 8 7:53 AM — May 23 7:53 AM, Christiansted, Weather by CustomWeather, © 2015

Note: Actual official high and low records may vary slightly from our data, if they occured in-between our weather recording intervals... More about our weather records

Advertising

Christiansted weather history for previous 24 hours

 ConditionsComfort  
Time TempWeatherWind HumidityBarometerVisibility
7:53 AM
Sat, May 23
84 °FCloudy.18 mph70%30.12 "Hg10 mi
6:53 AM82 °FSunny.16 mph74%30.11 "Hg10 mi
5:53 AM80 °FOvercast.14 mph79%30.09 "Hg10 mi
5:15 AM80 °FOvercast.12 mph79%30.08 "Hg10 mi
4:53 AM79 °FOvercast.9 mph82%30.08 "Hg10 mi
4:07 AM79 °FOvercast.9 mph82%30.08 "Hg10 mi
3:53 AM80 °FOvercast.8 mph79%30.07 "Hg10 mi
3:33 AM79 °FOvercast.10 mph82%30.07 "Hg10 mi
3:10 AM79 °FPassing clouds.10 mph82%30.07 "Hg10 mi
2:53 AM79 °FPassing clouds.8 mph82%30.07 "Hg10 mi
2:45 AM79 °FPassing clouds.8 mph82%30.08 "Hg10 mi
1:53 AM80 °FPassing clouds.13 mph79%30.08 "Hg10 mi
1:07 AM80 °FPassing clouds.12 mph79%30.09 "Hg10 mi
12:53 AM80 °FPassing clouds.13 mph79%30.09 "Hg10 mi
11:53 PM
Fri, May 22
80 °FClear.9 mph76%30.12 "Hg10 mi
11:11 PM81 °FPassing clouds.12 mph77%30.13 "Hg10 mi
10:53 PM81 °FMostly cloudy.8 mph79%30.12 "Hg10 mi
10:00 PM81 °FOvercast.9 mph79%30.13 "Hg10 mi
9:53 PM81 °FPassing clouds.12 mph79%30.12 "Hg10 mi
8:53 PM81 °FPassing clouds.14 mph79%30.11 "Hg10 mi
7:53 PM82 °FPassing clouds.13 mph77%30.10 "Hg10 mi
6:53 PM82 °FPartly cloudy.14 mph77%30.09 "Hg10 mi
5:53 PM83 °FScattered clouds.13 mph72%30.07 "Hg10 mi
4:53 PM85 °FScattered clouds.12 mph68%30.08 "Hg10 mi
3:53 PM87 °FScattered clouds.14 mph63%30.08 "Hg10 mi
2:53 PM88 °FScattered clouds.12 mph61%30.08 "Hg10 mi
1:53 PM88 °FPassing clouds.14 mph63%30.09 "Hg10 mi
12:53 PM89 °FPassing clouds.15 mph59%30.10 "Hg10 mi
11:53 AM88 °FScattered clouds.16 mph61%30.11 "Hg10 mi
10:53 AM87 °FScattered clouds.17 mph65%30.11 "Hg10 mi
9:53 AM87 °FBroken clouds.15 mph65%30.11 "Hg10 mi
Weather by CustomWeather, © 2015

See weather overviewHow to use our weather pages